Regional Weather Roundup
Issued by NWS

Home | Current Version | Previous Version | Text Only | Print | Product List | Glossary On
Versions: 1 2 3 4 5 6 7 8 9 10 11 12 13 14 15 16 17 18 19 20 21 22 23 24 25 26 27 28 29 30 31 32 33 34 35 36 37 38 39 40 41 42 43 44 45 46 47 48 49 50
000
ASUS44 KMEG 281300
RWRTN
TENNESSEE HOURLY STATE WEATHER ROUNDUP
NATIONAL WEATHER SERVICE MEMPHIS TN
800 AM CDT THU AUG 28 2014

TNZ002-004-019-021-049-052-054-088>092-281400-
WEST TENNESSEE

CITY           SKY/WX    TMP DP  RH WIND       PRES   REMARKS
MEMPHIS INTL   MOSUNNY   79  67  66 CALM      30.03S
NWS MEMPHIS      N/A     77 N/A N/A MISG        N/A
JACKSON        MOSUNNY   75  71  87 CALM      30.05R
DYERSBURG      SUNNY     75  66  73 CALM      30.05S
UNION CITY     SUNNY     75  73  94 CALM      30.03S
PARIS          SUNNY     75  72  88 CALM      30.06R
LEXINGTON      SUNNY     73  72  94 CALM      30.05R
SAVANNAH       SUNNY     73  73 100 CALM      30.05S
$$

TNZ008-025-027-028-033-062-065-066-281400-
NORTH MIDDLE TENNESSEE

CITY           SKY/WX    TMP DP  RH WIND       PRES   REMARKS
NASHVILLE      MOSUNNY   77  71  82 CALM      30.07R
CLARKSVILLE    SUNNY     75  72  90 SE5       30.05S FOG
COOKEVILLE     SUNNY     72  70  94 CALM      30.08S
CROSSVILLE     SUNNY     80  68  66 CALM      30.13S
$$

TNZ061-075-076-078-094-096-097-281400-
SOUTH MIDDLE TENNESSEE

CITY           SKY/WX    TMP DP  RH WIND       PRES   REMARKS
FAYETTEVILLE   SUNNY     72  68  88 CALM      30.08S
TULLAHOMA      SUNNY     72  66  83 CALM      30.10R
WINCHESTER     SUNNY     70  68  94 CALM      30.09R
COLUMBIA         N/A     72  72 100 CALM      30.06R
SHELBYVILLE    SUNNY     73  72  94 CALM      30.09R
$$

TNZ017-018-042-046-047-281400-
NORTHEAST TENNESSEE

CITY           SKY/WX    TMP DP  RH WIND       PRES   REMARKS
TRI CITIES     MOSUNNY   68  61  78 CALM      30.12R
ELIZABETHTON   SUNNY     66  61  82 E5        30.12S
$$

TNZ012-013-036-069-073-074-281400-
CENTRAL EAST TENNESSEE

CITY           SKY/WX    TMP DP  RH WIND       PRES   REMARKS
KNOXVILLE      MOSUNNY   71  65  81 CALM      30.08R
OAK RIDGE      MOSUNNY   71  66  84 CALM      30.10R
GATLINBURG     SUNNY     68  61  77 CALM      30.09R
$$

TNZ083-085-099-281400-
SOUTHEAST TENNESSEE

CITY           SKY/WX    TMP DP  RH WIND       PRES   REMARKS
CHATTANOOGA    MOSUNNY   72  64  76 CALM      30.09R
$$

SKY/WX REPORTED AS FAIR MEANS FEW OR NO CLOUDS BELOW
12 THOUSAND FEET.




USA.gov is the U.S. government's official web portal to all federal, state and local government web resources and services.